owner,sensor,date,latitude,longitude,vertical_datum,direction_of_sea_water_velocity,sea_water_speed,upward_sea_water_velocity,qcFlag 
TABS,ioos:station:wmo:42049:1,2005-11-01T00:00:00Z,28.3507,-96.0058,2.0,296.9704984,10.12069662,-99999.0,'11111222,11111222,99999999' 
TABS,ioos:station:wmo:42049:1,2005-11-01T00:30:00Z,28.3507,-96.0058,2.0,292.2166085,11.02873519,-99999.0,'11111222,11111222,99999999' 
TABS,ioos:station:wmo:42049:1,2005-11-01T01:00:00Z,28.3507,-96.0058,2.0,221.0211805,12.12782338,-99999.0,'11111222,11111222,99999999' 
TABS,ioos:station:wmo:42049:1,2005-11-01T01:30:00Z,28.3507,-96.0058,2.0,237.5320208,12.35043724,-99999.0,'11111222,11111222,99999999' 
TABS,ioos:station:wmo:42049:1,2005-11-01T02:00:00Z,28.3507,-96.0058,2.0,223.1373332,12.40213288,-99999.0,'11111222,11111222,99999999' 
TABS,ioos:station:wmo:42049:1,2005-11-01T02:30:00Z,28.3507,-96.0058,2.0,210.9275291,5.46737597,-99999.0,'11133222,11111222,99999999' 
TABS,ioos:station:wmo:42049:1,2005-11-01T03:00:00Z,28.3507,-96.0058,2.0,206.0914579,11.36855752,-99999.0,'11111222,11111222,99999999' 
TABS,ioos:station:wmo:42049:1,2005-11-01T03:30:00Z,28.3507,-96.0058,2.0,225.0286069,14.00778712,-99999.0,'11111222,11111222,99999999' 
TABS,ioos:station:wmo:42049:1,2005-11-01T04:00:00Z,28.3507,-96.0058,2.0,229.4529726,11.38343094,-99999.0,'11111222,11111222,99999999' 
TABS,ioos:station:wmo:42049:1,2005-11-01T04:30:00Z,28.3507,-96.0058,2.0,238.5931244,18.86369264,-99999.0,'11111222,11111222,99999999' 
TABS,ioos:station:wmo:42049:1,2005-11-01T05:00:00Z,28.3507,-96.0058,2.0,241.9884433,15.94824442,-99999.0,'11111222,11111222,99999999' 
TABS,ioos:station:wmo:42049:1,2005-11-01T05:30:00Z,28.3507,-96.0058,2.0,248.8142093,16.40898839,-99999.0,'11111222,11111222,99999999' 
TABS,ioos:station:wmo:42049:1,2005-11-01T06:00:00Z,28.3507,-96.0058,2.0,240.5889849,18.28675204,-99999.0,'11111222,11111222,99999999' 
TABS,ioos:station:wmo:42049:1,2005-11-01T06:30:00Z,28.3507,-96.0058,2.0,238.7470118,17.34730238,-99999.0,'11111222,11111222,99999999' 
TABS,ioos:station:wmo:42049:1,2005-11-01T07:00:00Z,28.3507,-96.0058,2.0,228.0402445,18.39653228,-99999.0,'11111222,11111222,99999999' 
TABS,ioos:station:wmo:42049:1,2005-11-01T07:30:00Z,28.3507,-96.0058,2.0,235.2015749,19.36265736,-99999.0,'11111222,11111222,99999999' 
TABS,ioos:station:wmo:42049:1,2005-11-01T08:00:00Z,28.3507,-96.0058,2.0,229.8132239,20.22387203,-99999.0,'11111222,11111222,99999999' 
TABS,ioos:station:wmo:42049:1,2005-11-01T08:30:00Z,28.3507,-96.0058,2.0,239.6481179,20.3837705,-99999.0,'11111222,11111222,99999999' 
TABS,ioos:station:wmo:42049:1,2005-11-01T09:00:00Z,28.3507,-96.0058,2.0,230.1941011,20.07234167,-99999.0,'11111222,11111222,99999999' 
TABS,ioos:station:wmo:42049:1,2005-11-01T09:30:00Z,28.3507,-96.0058,2.0,234.2822724,20.38412372,-99999.0,'11111222,11111222,99999999' 
TABS,ioos:station:wmo:42049:1,2005-11-01T10:00:00Z,28.3507,-96.0058,2.0,230.8861115,18.34005998,-99999.0,'11111222,11111222,99999999' 
TABS,ioos:station:wmo:42049:1,2005-11-01T10:30:00Z,28.3507,-96.0058,2.0,234.2611409,24.2087195,-99999.0,'11111222,11111222,99999999' 
TABS,ioos:station:wmo:42049:1,2005-11-01T11:00:00Z,28.3507,-96.0058,2.0,231.1198136,24.80526154,-99999.0,'11111222,11111222,99999999' 
TABS,ioos:station:wmo:42049:1,2005-11-01T11:30:00Z,28.3507,-96.0058,2.0,226.0392471,21.43593478,-99999.0,'11111222,11111222,99999999' 
TABS,ioos:station:wmo:42049:1,2005-11-01T12:00:00Z,28.3507,-96.0058,2.0,238.7493437,19.5459382,-99999.0,'11111222,11111222,99999999' 
TABS,ioos:station:wmo:42049:1,2005-11-01T12:30:00Z,28.3507,-96.0058,2.0,238.5717531,16.30147539,-99999.0,'11111222,11111222,99999999' 
TABS,ioos:station:wmo:42049:1,2005-11-01T13:00:00Z,28.3507,-96.0058,2.0,236.7646441,15.01620791,-99999.0,'11111222,11111222,99999999' 
TABS,ioos:station:wmo:42049:1,2005-11-01T13:30:00Z,28.3507,-96.0058,2.0,247.2243602,13.3292798,-99999.0,'11111222,11111222,99999999' 
TABS,ioos:station:wmo:42049:1,2005-11-01T14:00:00Z,28.3507,-96.0058,2.0,225.1831276,13.251249,-99999.0,'11111222,11111222,99999999' 
TABS,ioos:station:wmo:42049:1,2005-11-01T14:30:00Z,28.3507,-96.0058,2.0,215.8167432,15.02053594,-99999.0,'11111222,11111222,99999999' 
TABS,ioos:station:wmo:42049:1,2005-11-01T15:00:00Z,28.3507,-96.0058,2.0,232.40551,15.03120088,-99999.0,'11111222,11111222,99999999' 
TABS,ioos:station:wmo:42049:1,2005-11-01T15:30:00Z,28.3507,-96.0058,2.0,246.7092328,12.29161096,-99999.0,'11111222,11111222,99999999' 
TABS,ioos:station:wmo:42049:1,2005-11-01T16:00:00Z,28.3507,-96.0058,2.0,254.9096127,11.86927546,-99999.0,'11111222,11111222,99999999' 
TABS,ioos:station:wmo:42049:1,2005-11-01T16:30:00Z,28.3507,-96.0058,2.0,266.5059586,12.96409272,-99999.0,'11111222,11111222,99999999' 
TABS,ioos:station:wmo:42049:1,2005-11-01T17:00:00Z,28.3507,-96.0058,2.0,255.8860047,8.981102382,-99999.0,'11133222,11111222,99999999' 
TABS,ioos:station:wmo:42049:1,2005-11-01T17:30:00Z,28.3507,-96.0058,2.0,273.8275323,5.843030036,-99999.0,'11133222,11111222,99999999' 
TABS,ioos:station:wmo:42049:1,2005-11-01T18:00:00Z,28.3507,-96.0058,2.0,251.7993834,6.947582313,-99999.0,'11133222,11111222,99999999' 
TABS,ioos:station:wmo:42049:1,2005-11-01T18:30:00Z,28.3507,-96.0058,2.0,226.6514731,7.604557844,-99999.0,'11133222,11111222,99999999' 
TABS,ioos:station:wmo:42049:1,2005-11-01T19:00:00Z,28.3507,-96.0058,2.0,231.3261901,6.545242547,-99999.0,'11133222,11111222,99999999' 
TABS,ioos:station:wmo:42049:1,2005-11-01T19:30:00Z,28.3507,-96.0058,2.0,250.5254106,8.36876335,-99999.0,'11133222,11111222,99999999' 
TABS,ioos:station:wmo:42049:1,2005-11-01T20:00:00Z,28.3507,-96.0058,2.0,225.9828204,4.533221812,-99999.0,'11133222,11111222,99999999' 
TABS,ioos:station:wmo:42049:1,2005-11-01T20:30:00Z,28.3507,-96.0058,2.0,212.667544,3.575611836,-99999.0,'11133222,11111222,99999999' 
TABS,ioos:station:wmo:42049:1,2005-11-01T21:00:00Z,28.3507,-96.0058,2.0,238.9057764,6.796506456,-99999.0,'11133222,11111222,99999999' 
TABS,ioos:station:wmo:42049:1,2005-11-01T21:30:00Z,28.3507,-96.0058,2.0,270.5593851,4.100195117,-99999.0,'11133222,11111222,99999999' 
TABS,ioos:station:wmo:42049:1,2005-11-01T22:00:00Z,28.3507,-96.0058,2.0,207.0503233,1.583192976,-99999.0,'11133222,11111222,99999999' 
TABS,ioos:station:wmo:42049:1,2005-11-01T22:30:00Z,28.3507,-96.0058,2.0,126.7900125,4.308004178,-99999.0,'11133222,11111222,99999999' 
TABS,ioos:station:wmo:42049:1,2005-11-01T23:00:00Z,28.3507,-96.0058,2.0,43.31091089,2.63865496,-99999.0,'11133222,11111222,99999999' 
TABS,ioos:station:wmo:42049:1,2005-11-01T23:30:00Z,28.3507,-96.0058,2.0,114.2424842,3.531416147,-99999.0,'11133222,11111222,99999999' 
TABS,ioos:station:wmo:42049:1,2005-11-02T00:00:00Z,28.3507,-96.0058,2.0,8.337635401,1.17239072,-99999.0,'11133222,11111222,99999999' 
TABS,ioos:station:wmo:42049:1,2005-11-02T00:30:00Z,28.3507,-96.0058,2.0,151.9490794,3.104706105,-99999.0,'11133222,11111222,99999999' 
TABS,ioos:station:wmo:42049:1,2005-11-02T01:00:00Z,28.3507,-96.0058,2.0,65.36559387,1.991230775,-99999.0,'11133222,11111222,99999999' 
TABS,ioos:station:wmo:42049:1,2005-11-02T01:30:00Z,28.3507,-96.0058,2.0,236.7247689,0.765506368,-99999.0,'11133222,11111222,99999999' 
TABS,ioos:station:wmo:42049:1,2005-11-02T02:00:00Z,28.3507,-96.0058,2.0,91.36032695,3.791068451,-99999.0,'11133222,11111222,99999999' 
TABS,ioos:station:wmo:42049:1,2005-11-02T02:30:00Z,28.3507,-96.0058,2.0,30.96389458,0.174928557,-99999.0,'11133222,11111222,99999999' 
TABS,ioos:station:wmo:42049:1,2005-11-02T03:00:00Z,28.3507,-96.0058,2.0,130.0471704,5.15993217,-99999.0,'11133222,11111222,99999999' 
TABS,ioos:station:wmo:42049:1,2005-11-02T03:30:00Z,28.3507,-96.0058,2.0,75.67319686,5.738466694,-99999.0,'11133222,11111222,99999999' 
TABS,ioos:station:wmo:42049:1,2005-11-02T04:00:00Z,28.3507,-96.0058,2.0,66.13526532,6.550007634,-99999.0,'11133222,11111222,99999999' 
TABS,ioos:station:wmo:42049:1,2005-11-02T04:30:00Z,28.3507,-96.0058,2.0,78.02865631,7.135180446,-99999.0,'11133222,11111222,99999999' 
TABS,ioos:station:wmo:42049:1,2005-11-02T05:00:00Z,28.3507,-96.0058,2.0,105.6390284,6.936807623,-99999.0,'11133222,11111222,99999999' 
TABS,ioos:station:wmo:42049:1,2005-11-02T05:30:00Z,28.3507,-96.0058,2.0,144.2564327,3.560688136,-99999.0,'11133222,11111222,99999999' 
TABS,ioos:station:wmo:42049:1,2005-11-02T06:00:00Z,28.3507,-96.0058,2.0,53.49101153,6.034119654,-99999.0,'11133222,11111222,99999999' 
TABS,ioos:station:wmo:42049:1,2005-11-02T06:30:00Z,28.3507,-96.0058,2.0,69.04686531,4.390318895,-99999.0,'11133222,11111222,99999999' 
TABS,ioos:station:wmo:42049:1,2005-11-02T07:00:00Z,28.3507,-96.0058,2.0,130.0792902,2.143361845,-99999.0,'11133222,11111222,99999999' 
TABS,ioos:station:wmo:42049:1,2005-11-02T07:30:00Z,28.3507,-96.0058,2.0,100.3691754,2.389016534,-99999.0,'11133222,11111222,99999999' 
TABS,ioos:station:wmo:42049:1,2005-11-02T08:00:00Z,28.3507,-96.0058,2.0,86.13180501,5.632832325,-99999.0,'11133222,11111222,99999999' 
TABS,ioos:station:wmo:42049:1,2005-11-02T08:30:00Z,28.3507,-96.0058,2.0,145.9952088,4.041051843,-99999.0,'11133222,11111222,99999999' 
TABS,ioos:station:wmo:42049:1,2005-11-02T09:00:00Z,28.3507,-96.0058,2.0,159.5970914,3.499542827,-99999.0,'11133222,11111222,99999999' 
TABS,ioos:station:wmo:42049:1,2005-11-02T09:30:00Z,28.3507,-96.0058,2.0,137.4507417,7.275713023,-99999.0,'11133222,11111222,99999999' 
TABS,ioos:station:wmo:42049:1,2005-11-02T10:00:00Z,28.3507,-96.0058,2.0,181.3123897,6.111603718,-99999.0,'11133222,11111222,99999999' 
TABS,ioos:station:wmo:42049:1,2005-11-02T10:30:00Z,28.3507,-96.0058,2.0,186.8788867,7.514093425,-99999.0,'11133222,11111222,99999999' 
TABS,ioos:station:wmo:42049:1,2005-11-02T11:00:00Z,28.3507,-96.0058,2.0,213.7755501,9.263503657,-99999.0,'11133222,11111222,99999999' 
TABS,ioos:station:wmo:42049:1,2005-11-02T11:30:00Z,28.3507,-96.0058,2.0,222.8740984,6.672608186,-99999.0,'11133222,11111222,99999999' 
TABS,ioos:station:wmo:42049:1,2005-11-02T12:00:00Z,28.3507,-96.0058,2.0,232.342148,7.856742327,-99999.0,'11133222,11111222,99999999' 
TABS,ioos:station:wmo:42049:1,2005-11-02T12:30:00Z,28.3507,-96.0058,2.0,214.7461986,9.176300998,-99999.0,'11133222,11111222,99999999' 
TABS,ioos:station:wmo:42049:1,2005-11-02T13:00:00Z,28.3507,-96.0058,2.0,233.7700993,13.95887173,-99999.0,'11111222,11111222,99999999' 
TABS,ioos:station:wmo:42049:1,2005-11-02T13:30:00Z,28.3507,-96.0058,2.0,247.5635241,15.59008018,-99999.0,'11111222,11111222,99999999' 
TABS,ioos:station:wmo:42049:1,2005-11-02T14:00:00Z,28.3507,-96.0058,2.0,237.682345,12.85054474,-99999.0,'11111222,11111222,99999999' 
TABS,ioos:station:wmo:42049:1,2005-11-02T14:30:00Z,28.3507,-96.0058,2.0,235.6433919,15.50491857,-99999.0,'11111222,11111222,99999999' 
TABS,ioos:station:wmo:42049:1,2005-11-02T15:00:00Z,28.3507,-96.0058,2.0,243.516558,15.63013116,-99999.0,'11111222,11111222,99999999' 
TABS,ioos:station:wmo:42049:1,2005-11-02T15:30:00Z,28.3507,-96.0058,2.0,244.4197355,16.90717303,-99999.0,'11111222,11111222,99999999' 
TABS,ioos:station:wmo:42049:1,2005-11-02T16:00:00Z,28.3507,-96.0058,2.0,257.4708007,19.54543425,-99999.0,'11111222,11111222,99999999' 
TABS,ioos:station:wmo:42049:1,2005-11-02T16:30:00Z,28.3507,-96.0058,2.0,248.8778042,20.97947807,-99999.0,'11111222,11111222,99999999' 
TABS,ioos:station:wmo:42049:1,2005-11-02T17:00:00Z,28.3507,-96.0058,2.0,250.6947413,21.86967078,-99999.0,'11111222,11111222,99999999' 
TABS,ioos:station:wmo:42049:1,2005-11-02T17:30:00Z,28.3507,-96.0058,2.0,256.1152408,21.04489012,-99999.0,'11111222,11111222,99999999' 
TABS,ioos:station:wmo:42049:1,2005-11-02T18:00:00Z,28.3507,-96.0058,2.0,259.5358548,22.57542912,-99999.0,'11111222,11111222,99999999' 
TABS,ioos:station:wmo:42049:1,2005-11-02T18:30:00Z,28.3507,-96.0058,2.0,265.0402312,28.68739793,-99999.0,'11111222,11111222,99999999' 
TABS,ioos:station:wmo:42049:1,2005-11-02T19:00:00Z,28.3507,-96.0058,2.0,266.1220514,29.42736312,-99999.0,'11111222,11111222,99999999' 
TABS,ioos:station:wmo:42049:1,2005-11-02T19:30:00Z,28.3507,-96.0058,2.0,264.8867413,32.42903175,-99999.0,'11111222,11111222,99999999' 
TABS,ioos:station:wmo:42049:1,2005-11-02T20:00:00Z,28.3507,-96.0058,2.0,261.21924,34.39306035,-99999.0,'11111222,11111222,99999999' 
TABS,ioos:station:wmo:42049:1,2005-11-02T20:30:00Z,28.3507,-96.0058,2.0,265.1852388,37.53241932,-99999.0,'11111222,11111222,99999999' 
TABS,ioos:station:wmo:42049:1,2005-11-02T21:00:00Z,28.3507,-96.0058,2.0,268.1141792,36.16958114,-99999.0,'11111222,11111222,99999999' 
TABS,ioos:station:wmo:42049:1,2005-11-02T21:30:00Z,28.3507,-96.0058,2.0,264.4640582,34.52098637,-99999.0,'11111222,11111222,99999999' 
TABS,ioos:station:wmo:42049:1,2005-11-02T22:00:00Z,28.3507,-96.0058,2.0,263.4220055,35.18157757,-99999.0,'11111222,11111222,99999999' 
TABS,ioos:station:wmo:42049:1,2005-11-02T22:30:00Z,28.3507,-96.0058,2.0,260.5916555,32.91269208,-99999.0,'11111222,11111222,99999999' 
TABS,ioos:station:wmo:42049:1,2005-11-02T23:00:00Z,28.3507,-96.0058,2.0,258.0387023,28.99960345,-99999.0,'11111222,11111222,99999999' 
TABS,ioos:station:wmo:42049:1,2005-11-02T23:30:00Z,28.3507,-96.0058,2.0,256.1078188,29.82227523,-99999.0,'11111222,11111222,99999999' 
TABS,ioos:station:wmo:42049:1,2005-11-03T00:00:00Z,28.3507,-96.0058,2.0,248.5512609,30.13706854,-99999.0,'11111222,11111222,99999999' 
TABS,ioos:station:wmo:42049:1,2005-11-03T00:30:00Z,28.3507,-96.0058,2.0,250.5923443,28.13883615,-99999.0,'11111222,11111222,99999999' 
TABS,ioos:station:wmo:42049:1,2005-11-03T01:00:00Z,28.3507,-96.0058,2.0,243.0559899,30.45591076,-99999.0,'11111222,11111222,99999999' 
TABS,ioos:station:wmo:42049:1,2005-11-03T01:30:00Z,28.3507,-96.0058,2.0,239.506292,27.15600118,-99999.0,'11111222,11111222,99999999' 
TABS,ioos:station:wmo:42049:1,2005-11-03T02:00:00Z,28.3507,-96.0058,2.0,243.6073402,22.2489775,-99999.0,'11111222,11111222,99999999' 
TABS,ioos:station:wmo:42049:1,2005-11-03T02:30:00Z,28.3507,-96.0058,2.0,245.9029701,24.71359343,-99999.0,'11111222,11111222,99999999' 
TABS,ioos:station:wmo:42049:1,2005-11-03T03:00:00Z,28.3507,-96.0058,2.0,246.5998817,25.43158666,-99999.0,'11111222,11111222,99999999' 
TABS,ioos:station:wmo:42049:1,2005-11-03T03:30:00Z,28.3507,-96.0058,2.0,240.1018604,22.30896681,-99999.0,'11111222,11111222,99999999' 
TABS,ioos:station:wmo:42049:1,2005-11-03T04:00:00Z,28.3507,-96.0058,2.0,245.5974566,21.56658758,-99999.0,'11111222,11111222,99999999' 
TABS,ioos:station:wmo:42049:1,2005-11-03T04:30:00Z,28.3507,-96.0058,2.0,252.4609716,17.587578,-99999.0,'11111222,11111222,99999999' 
TABS,ioos:station:wmo:42049:1,2005-11-03T05:00:00Z,28.3507,-96.0058,2.0,267.6536706,24.43047482,-99999.0,'11111222,11111222,99999999' 
TABS,ioos:station:wmo:42049:1,2005-11-03T05:30:00Z,28.3507,-96.0058,2.0,256.2148473,26.52395144,-99999.0,'11111222,11111222,99999999' 
TABS,ioos:station:wmo:42049:1,2005-11-03T06:00:00Z,28.3507,-96.0058,2.0,249.754675,21.12506805,-99999.0,'11111222,11111222,99999999' 
TABS,ioos:station:wmo:42049:1,2005-11-03T06:30:00Z,28.3507,-96.0058,2.0,251.5730463,21.63946626,-99999.0,'11111222,11111222,99999999' 
TABS,ioos:station:wmo:42049:1,2005-11-03T07:00:00Z,28.3507,-96.0058,2.0,242.5416423,19.8005505,-99999.0,'11111222,11111222,99999999' 
TABS,ioos:station:wmo:42049:1,2005-11-03T07:30:00Z,28.3507,-96.0058,2.0,243.6101891,20.42881299,-99999.0,'11111222,11111222,99999999' 
TABS,ioos:station:wmo:42049:1,2005-11-03T08:00:00Z,28.3507,-96.0058,2.0,241.8745496,19.21941987,-99999.0,'11111222,11111222,99999999' 
TABS,ioos:station:wmo:42049:1,2005-11-03T08:30:00Z,28.3507,-96.0058,2.0,237.308438,18.77390742,-99999.0,'11111222,11111222,99999999' 
TABS,ioos:station:wmo:42049:1,2005-11-03T09:00:00Z,28.3507,-96.0058,2.0,235.2065305,24.78027643,-99999.0,'11111222,11111222,99999999' 
TABS,ioos:station:wmo:42049:1,2005-11-03T09:30:00Z,28.3507,-96.0058,2.0,240.8824037,23.09913418,-99999.0,'11111222,11111222,99999999' 
TABS,ioos:station:wmo:42049:1,2005-11-03T10:00:00Z,28.3507,-96.0058,2.0,233.9252921,24.20033264,-99999.0,'11111222,11111222,99999999' 
TABS,ioos:station:wmo:42049:1,2005-11-03T10:30:00Z,28.3507,-96.0058,2.0,226.910056,22.05985041,-99999.0,'11111222,11111222,99999999' 
TABS,ioos:station:wmo:42049:1,2005-11-03T11:00:00Z,28.3507,-96.0058,2.0,224.9237458,21.3405014,-99999.0,'11111222,11111222,99999999' 
TABS,ioos:station:wmo:42049:1,2005-11-03T11:30:00Z,28.3507,-96.0058,2.0,221.4435115,21.31789155,-99999.0,'11111222,11111222,99999999' 
TABS,ioos:station:wmo:42049:1,2005-11-03T12:00:00Z,28.3507,-96.0058,2.0,219.4170916,23.6233465,-99999.0,'11111222,11111222,99999999' 
TABS,ioos:station:wmo:42049:1,2005-11-03T12:30:00Z,28.3507,-96.0058,2.0,223.5592086,20.53379897,-99999.0,'11111222,11111222,99999999' 
TABS,ioos:station:wmo:42049:1,2005-11-03T13:00:00Z,28.3507,-96.0058,2.0,221.6844341,18.58558581,-99999.0,'11111222,11111222,99999999' 
TABS,ioos:station:wmo:42049:1,2005-11-03T13:30:00Z,28.3507,-96.0058,2.0,224.3984028,18.86664782,-99999.0,'11111222,11111222,99999999' 
TABS,ioos:station:wmo:42049:1,2005-11-03T14:00:00Z,28.3507,-96.0058,2.0,221.2461907,18.68648977,-99999.0,'11111222,11111222,99999999' 
TABS,ioos:station:wmo:42049:1,2005-11-03T14:30:00Z,28.3507,-96.0058,2.0,223.9962379,17.36213409,-99999.0,'11111222,11111222,99999999' 
TABS,ioos:station:wmo:42049:1,2005-11-03T15:00:00Z,28.3507,-96.0058,2.0,232.1013583,19.38912324,-99999.0,'11111222,11111222,99999999' 
TABS,ioos:station:wmo:42049:1,2005-11-03T15:30:00Z,28.3507,-96.0058,2.0,234.2219959,17.20712643,-99999.0,'11111222,11111222,99999999' 
TABS,ioos:station:wmo:42049:1,2005-11-03T16:00:00Z,28.3507,-96.0058,2.0,236.1671749,17.85308097,-99999.0,'11111222,11111222,99999999' 
TABS,ioos:station:wmo:42049:1,2005-11-03T16:30:00Z,28.3507,-96.0058,2.0,239.9398498,17.82778169,-99999.0,'11111222,11111222,99999999' 
TABS,ioos:station:wmo:42049:1,2005-11-03T17:00:00Z,28.3507,-96.0058,2.0,227.4042411,14.49430923,-99999.0,'11111222,11111222,99999999' 
TABS,ioos:station:wmo:42049:1,2005-11-03T17:30:00Z,28.3507,-96.0058,2.0,225.1442969,14.00782995,-99999.0,'11111222,11111222,99999999' 
TABS,ioos:station:wmo:42049:1,2005-11-03T18:00:00Z,28.3507,-96.0058,2.0,231.6249118,12.870439,-99999.0,'11111222,11111222,99999999' 
TABS,ioos:station:wmo:42049:1,2005-11-03T18:30:00Z,28.3507,-96.0058,2.0,233.6013712,10.44835394,-99999.0,'11111222,11111222,99999999' 
TABS,ioos:station:wmo:42049:1,2005-11-03T19:00:00Z,28.3507,-96.0058,2.0,237.2070604,10.80133788,-99999.0,'11111222,11111222,99999999' 
TABS,ioos:station:wmo:42049:1,2005-11-03T19:30:00Z,28.3507,-96.0058,2.0,239.035895,6.763904198,-99999.0,'11133222,11111222,99999999' 
TABS,ioos:station:wmo:42049:1,2005-11-03T20:00:00Z,28.3507,-96.0058,2.0,257.1611427,7.42563802,-99999.0,'11133222,11111222,99999999' 
TABS,ioos:station:wmo:42049:1,2005-11-03T20:30:00Z,28.3507,-96.0058,2.0,285.5618949,6.560487787,-99999.0,'11133222,11111222,99999999' 
TABS,ioos:station:wmo:42049:1,2005-11-03T21:00:00Z,28.3507,-96.0058,2.0,308.4636973,6.832642241,-99999.0,'11133222,11111222,99999999' 
TABS,ioos:station:wmo:42049:1,2005-11-03T21:30:00Z,28.3507,-96.0058,2.0,302.7717536,3.805732518,-99999.0,'11133222,11111222,99999999' 
TABS,ioos:station:wmo:42049:1,2005-11-03T22:00:00Z,28.3507,-96.0058,2.0,269.4834161,5.550225221,-99999.0,'11133222,11111222,99999999' 
TABS,ioos:station:wmo:42049:1,2005-11-03T22:30:00Z,28.3507,-96.0058,2.0,252.7243459,3.906213,-99999.0,'11133222,11111222,99999999' 
TABS,ioos:station:wmo:42049:1,2005-11-03T23:00:00Z,28.3507,-96.0058,2.0,247.2442899,3.903857067,-99999.0,'11133222,11111222,99999999' 
TABS,ioos:station:wmo:42049:1,2005-11-03T23:30:00Z,28.3507,-96.0058,2.0,298.5766379,2.6759858,-99999.0,'11133222,11111222,99999999' 
TABS,ioos:station:wmo:42049:1,2005-11-04T00:00:00Z,28.3507,-96.0058,2.0,275.1948377,0.883628881,-99999.0,'11133222,11111222,99999999' 
TABS,ioos:station:wmo:42049:1,2005-11-04T00:30:00Z,28.3507,-96.0058,2.0,198.5720946,1.318673576,-99999.0,'11133222,11111222,99999999' 
TABS,ioos:station:wmo:42049:1,2005-11-04T01:00:00Z,28.3507,-96.0058,2.0,277.3061634,1.965960325,-99999.0,'11133222,11111222,99999999' 
TABS,ioos:station:wmo:42049:1,2005-11-04T01:30:00Z,28.3507,-96.0058,2.0,320.5829084,0.94493386,-99999.0,'11133222,11111222,99999999' 
TABS,ioos:station:wmo:42049:1,2005-11-04T02:00:00Z,28.3507,-96.0058,2.0,316.8479216,2.412488342,-99999.0,'11133222,11111222,99999999' 
TABS,ioos:station:wmo:42049:1,2005-11-04T02:30:00Z,28.3507,-96.0058,2.0,235.8983846,1.159353268,-99999.0,'11133222,11111222,99999999' 
TABS,ioos:station:wmo:42049:1,2005-11-04T03:00:00Z,28.3507,-96.0058,2.0,287.3873524,1.037400598,-99999.0,'11133222,11111222,99999999' 
TABS,ioos:station:wmo:42049:1,2005-11-04T03:30:00Z,28.3507,-96.0058,2.0,240.4392937,0.770259696,-99999.0,'11133222,11111222,99999999' 
TABS,ioos:station:wmo:42049:1,2005-11-04T04:00:00Z,28.3507,-96.0058,2.0,296.8918774,1.569745202,-99999.0,'11133222,11111222,99999999' 
TABS,ioos:station:wmo:42049:1,2005-11-04T04:30:00Z,28.3507,-96.0058,2.0,62.6844559,1.02420701,-99999.0,'11133222,11111222,99999999' 
TABS,ioos:station:wmo:42049:1,2005-11-04T05:00:00Z,28.3507,-96.0058,2.0,358.8769104,2.550490149,-99999.0,'11133222,11111222,99999999' 
TABS,ioos:station:wmo:42049:1,2005-11-04T05:30:00Z,28.3507,-96.0058,2.0,8.680608585,3.975537699,-99999.0,'11133222,11111222,99999999' 
TABS,ioos:station:wmo:42049:1,2005-11-04T06:00:00Z,28.3507,-96.0058,2.0,47.52210066,4.338767106,-99999.0,'11133222,11111222,99999999' 
TABS,ioos:station:wmo:42049:1,2005-11-04T06:30:00Z,28.3507,-96.0058,2.0,74.08003839,3.098854627,-99999.0,'11133222,11111222,99999999' 
TABS,ioos:station:wmo:42049:1,2005-11-04T07:00:00Z,28.3507,-96.0058,2.0,36.06953601,6.012586798,-99999.0,'11133222,11111222,99999999' 
TABS,ioos:station:wmo:42049:1,2005-11-04T07:30:00Z,28.3507,-96.0058,2.0,62.63185357,7.65704904,-99999.0,'11133222,11111222,99999999' 
TABS,ioos:station:wmo:42049:1,2005-11-04T08:00:00Z,28.3507,-96.0058,2.0,65.27652841,10.85500806,-99999.0,'11111222,11111222,99999999' 
TABS,ioos:station:wmo:42049:1,2005-11-04T08:30:00Z,28.3507,-96.0058,2.0,63.39289728,12.16868522,-99999.0,'11111222,11111222,99999999' 
TABS,ioos:station:wmo:42049:1,2005-11-04T09:00:00Z,28.3507,-96.0058,2.0,60.90317924,10.52874162,-99999.0,'11111222,11111222,99999999' 
TABS,ioos:station:wmo:42049:1,2005-11-04T09:30:00Z,28.3507,-96.0058,2.0,67.89357605,11.16044802,-99999.0,'11111222,11111222,99999999' 
TABS,ioos:station:wmo:42049:1,2005-11-04T10:00:00Z,28.3507,-96.0058,2.0,74.51866607,9.328461824,-99999.0,'11133222,11111222,99999999' 
TABS,ioos:station:wmo:42049:1,2005-11-04T10:30:00Z,28.3507,-96.0058,2.0,73.09926724,9.803412671,-99999.0,'11133222,11111222,99999999' 
TABS,ioos:station:wmo:42049:1,2005-11-04T11:00:00Z,28.3507,-96.0058,2.0,74.10669993,7.558954954,-99999.0,'11133222,11111222,99999999' 
TABS,ioos:station:wmo:42049:1,2005-11-04T11:30:00Z,28.3507,-96.0058,2.0,80.23824805,9.436630755,-99999.0,'11133222,11111222,99999999' 
TABS,ioos:station:wmo:42049:1,2005-11-04T12:00:00Z,28.3507,-96.0058,2.0,85.31507897,9.672316165,-99999.0,'11133222,11111222,99999999' 
TABS,ioos:station:wmo:42049:1,2005-11-04T12:30:00Z,28.3507,-96.0058,2.0,85.66769615,7.280803527,-99999.0,'11133222,11111222,99999999' 
TABS,ioos:station:wmo:42049:1,2005-11-04T13:00:00Z,28.3507,-96.0058,2.0,94.37924314,9.036382019,-99999.0,'11133222,11111222,99999999' 
TABS,ioos:station:wmo:42049:1,2005-11-04T13:30:00Z,28.3507,-96.0058,2.0,88.44985185,7.762840975,-99999.0,'11133222,11111222,99999999' 
TABS,ioos:station:wmo:42049:1,2005-11-04T14:00:00Z,28.3507,-96.0058,2.0,111.0231343,8.613344298,-99999.0,'11133222,11111222,99999999' 
TABS,ioos:station:wmo:42049:1,2005-11-04T14:30:00Z,28.3507,-96.0058,2.0,116.6147897,10.29038872,-99999.0,'11111222,11111222,99999999' 
TABS,ioos:station:wmo:42049:1,2005-11-04T15:00:00Z,28.3507,-96.0058,2.0,97.31843462,9.18482444,-99999.0,'11133222,11111222,99999999' 
TABS,ioos:station:wmo:42049:1,2005-11-04T15:30:00Z,28.3507,-96.0058,2.0,108.8814571,9.332164808,-99999.0,'11133222,11111222,99999999' 
TABS,ioos:station:wmo:42049:1,2005-11-04T16:00:00Z,28.3507,-96.0058,2.0,119.3271109,8.166663946,-99999.0,'11133222,11111222,99999999' 